Home > Weather > Compton > Past weeks

Flag for USA Weather for the Past 2 Weeks in Compton, California, USA

Now
60 °F

Clear.


Feels Like: 60 °F
Forecast: 56 / 71 °F
Wind: 5 mph from Northwest

Location: Hawthorne Municipal Airport

Current Time: Apr 30, 2016 at 10:06:27 PM

Latest Report: Apr 30, 2016 at 8:53 PM


Visibility: 10 mi

Pressure: 29.82 "Hg

Humidity: 67%

Dew Point: 49 °F

Location of ComptonLocation

Historic Weather in Compton — Graph

°F

Compton Temperature Yesterday

Maximum temperature yesterday: 66 °F (at 12:53 PM)
Minimum temperature yesterday: 56 °F (at 11:53 PM)
Average temperature yesterday: 60 °F

High & Low Weather Summary for the Past Weeks

 TemperatureHumidityPressure
High85 °F (Apr 17, 11:53 AM)87% (Apr 22, 4:53 AM)30.06 "Hg (Apr 22, 4:53 AM)
Low53 °F (Apr 26, 3:53 AM)9% (Apr 16, 11:53 AM)29.72 "Hg (Apr 27, 8:53 PM)
Average65 °F53%29.93 "Hg
* Reported Apr 15 7:53 PM — Apr 30 7:53 PM, Compton, Weather by CustomWeather, © 2016

Note: Actual official high and low records may vary slightly from our data, if they occured in-between our weather recording intervals... More about our weather records

Advertising

Compton Weather History for the Previous 24 Hours

Scroll right to see more
 ConditionsComfort  
Time TempWeatherWind HumidityBarometerVisibility
7:53 PM
Sat, Apr 30
62 °FSunny.8 mph60%29.80 "Hg10 mi
6:53 PM63 °FSunny.6 mph58%29.81 "Hg10 mi
5:53 PM63 °FSunny.10 mph65%29.80 "Hg10 mi
4:53 PM66 °FSunny.12 mph54%29.79 "Hg10 mi
3:53 PM66 °FSunny.13 mph50%29.80 "Hg10 mi
2:53 PM67 °FSunny.16 mph47%29.81 "Hg10 mi
1:53 PM64 °FSunny.12 mph58%29.82 "Hg10 mi
12:53 PM65 °FSunny.15 mph54%29.82 "Hg10 mi
12:02 PM65 °FSunny.15 mph54%29.84 "Hg2 mi
10:53 AM64 °FSunny.6 mph52%29.83 "Hg10 mi
9:53 AM61 °FPartly sunny.6 mph62%29.84 "Hg10 mi
8:53 AM59 °FPartly sunny.3 mph69%29.85 "Hg10 mi
7:53 AM57 °FOvercast.No wind78%29.85 "Hg10 mi
6:53 AM57 °FPartly cloudy.5 mph74%29.84 "Hg10 mi
5:53 AM57 °FOvercast.3 mph72%29.82 "Hg10 mi
4:53 AM57 °FOvercast.No wind72%29.83 "Hg10 mi
3:53 AM57 °FOvercast.5 mph74%29.85 "Hg10 mi
2:53 AM57 °FOvercast.3 mph78%29.85 "Hg10 mi
1:53 AM56 °FMostly cloudy.3 mph81%29.87 "Hg10 mi
12:53 AM56 °FClear.3 mph81%29.88 "Hg10 mi
11:53 PM
Fri, Apr 29
56 °FPassing clouds.6 mph81%29.90 "Hg10 mi
10:53 PM57 °FClear.7 mph81%29.90 "Hg10 mi
Weather by CustomWeather, © 2016

See weather overviewHow to use our weather pages